Location: Aressy
(43.2833°N, 0.3167°W)
Time: 00:44:51
(UTC+00:00)

Cosmos 405 - Pass Details

Date: 28 January 2021
Orbit: 447 x 462 km, 81.3° (Epoch: 08 March)

Event Time Altitude Azimuth Distance (km) Brightness Sun altitude
Rises 18:17:27 0° 350° (N) 2,502 6.7 -12.8°
Reaches altitude 10° 18:19:33 10° 352° (N) 1,620 5.7 -13.2°
Maximum altitude 18:23:05 83° 79° (E) 470 2.8 -13.8°
Drops below altitude 10° 18:26:35 10° 169° (S) 1,597 5.7 -14.4°
Sets 18:28:38 0° 170° (S) 2,463 6.7 -14.8°
